Regional Weather Roundup
Issued by NWS

Home | Current Version | Previous Version | Text Only | Print | Product List | Glossary On
Versions: 1 2 3 4 5 6 7 8 9 10 11 12 13 14 15 16 17 18 19 20 21 22 23 24 25 26 27 28 29 30 31 32 33 34 35 36 37 38 39 40 41 42 43 44 45 46 47 48 49 50
740
ASUS45 KPSR 111010
RWRAZ

ARIZONA HOURLY REGIONAL WEATHER ROUNDUP
NATIONAL WEATHER SERVICE PHOENIX AZ
300 AM MST THU FEB 11 2016

NOTE: FAIR INDICATES FEW OR NO CLOUDS BELOW 12,000 FEET WITH NO
SIGNIFICANT WEATHER AND/OR OBSTRUCTIONS TO VISIBILITY.

AZZ001>003-036-111100-
NORTHWEST ARIZONA

CITY           SKY/WX    TMP DP  RH WIND       PRES   REMARKS
BULLHEAD CITY  CLEAR     59  30  33 N6        30.17F
KINGMAN        PTCLDY    38  32  79 CALM      30.25F
$$

AZZ004>008-015-016-018-111100-
NORTH CENTRAL ARIZONA

CITY           SKY/WX    TMP DP  RH WIND       PRES   REMARKS
GRAND CANYON   PTCLDY    21  16  81 CALM      30.37S
WILLIAMS       PTCLDY    27  18  69 S8        30.42S WCI  18
PRESCOTT       MOCLDY    33  20  58 S5        30.30S WCI  29
FLAGSTAFF      PTCLDY    20  16  84 CALM      30.38S
PAYSON         CLEAR     45  18  33 CALM      30.30S
PAGE           PTCLDY    34  27  75 CALM      30.34F
$$

AZZ009>014-017-111100-
NORTHEAST ARIZONA

CITY           SKY/WX    TMP DP  RH WIND       PRES   REMARKS
WINSLOW        MOCLDY    22  17  81 CALM      30.35S
SAINT JOHNS    MOCLDY    27  16  63 S6        30.35  WCI  20
WINDOW ROCK    CLEAR     25   0  33 S5        30.37S WCI  19
SHOW LOW       PTCLDY    27  14  59 CALM      30.37S
$$

AZZ023-111100-
GREATER PHOENIX AREA

CITY           SKY/WX    TMP DP  RH WIND       PRES   REMARKS
PHOENIX        PTCLDY    59  35  40 E3        30.11S
BUCKEYE        CLEAR     52  28  40 NE5       30.14S
DEER VALLEY    CLEAR     60  29  30 NE7       30.11F
SCOTTSDALE     CLEAR     54  33  45 CALM      30.13S
MESA-GATEWAY   CLEAR     52  32  46 S5        30.14S
$$

AZZ027-028-111100-
SOUTHWEST MARICOPA COUNTY AND PINAL COUNTY

CITY           SKY/WX    TMP DP  RH WIND       PRES   REMARKS
CASA GRANDE    PTCLDY    46  28  49 CALM      30.14S
$$

AZZ503-504-507>509-111100-
SOUTHEAST ARIZONA

CITY           SKY/WX    TMP DP  RH WIND       PRES   REMARKS
TUCSON         CLEAR     49  22  34 SE9       30.20F
DAVIS-MONTHAN  PTCLDY    49  21  33 S7        30.18F
NOGALES        CLEAR     41  19  41 NE3       30.23F
DOUGLAS        PTCLDY    32  14  47 CALM      30.25S
SAFFORD        PTCLDY    39  22  50 NE5       30.21S
$$

AZZ020-021-025-026-031-111100-
SOUTHWEST ARIZONA

CITY           SKY/WX    TMP DP  RH WIND       PRES   REMARKS
YUMA           PTCLDY    57  30  35 CALM      30.10R
$$

CAZ031-033-041-043-047-048-061-111100-
SOUTHERN CALIFORNIA

CITY           SKY/WX    TMP DP  RH WIND       PRES   REMARKS
DOWNTOWN L.A.  CLEAR     64  34  32 NE3       30.08S
L.A. AIRPORT   PTCLDY    62  36  37 CALM      30.08S
SAN DIEGO      PTCLDY    60  35  39 CALM      30.09F
BURBANK        CLEAR     60  32  34 CALM      30.10S
ONTARIO        CLEAR     58  36  43 NE6       30.12S
RIVERSIDE      CLEAR     56  32  40 E5        30.12F
PALM SPRINGS   CLEAR     59  28  30 NW9       30.14S
EL CENTRO NAS  CLEAR     54  22  28 W9        30.11F
IMPERIAL       CLEAR     52  27  38 W7        30.10S
BLYTHE         CLEAR     58  24  27 W6        30.13S
NEEDLES        CLEAR     53  26  35 W5        30.17S
$$

NVZ020-UTZ003-111100-
SOUTHERN NEVADA-UTAH

CITY           SKY/WX    TMP DP  RH WIND       PRES   REMARKS
LAS VEGAS      CLEAR     50  27  40 SW5       30.20F
SALT LAKE CITY CLOUDY    29  27  92 VRB5      30.45F FOG     WCI  24
$$

NMZ009-TXZ055-111100-
NEW MEXICO-WEST TEXAS

CITY           SKY/WX    TMP DP  RH WIND       PRES   REMARKS
ALBUQUERQUE    CLOUDY    42  22  44 N9        30.31S
EL PASO        MOCLDY    39  19  44 N6        30.22S WCI  35
$$


........................KEY........................
SKY/WX - SKY CONDITION/WEATHER
TMP    - TEMPERATURE IN FAHRENHEIT
DP     - DEW POINT IN FAHRENHEIT
RH     - RELATIVE HUMIDITY IN PERCENT
WIND   - DIRECTION AND SPEED IN MILES PER HOUR (MPH)
VRB    - VARIABLE WIND DIRECTION
PRES   - MEAN SEA LEVEL PRESSURE IN INCHES OF MERCURY
         F - FALLING PRESSURE   R - RISING PRESSURE
         S - STEADY PRESSURE
VSB    - VISIBILITY IN MILES
HX     - HEAT INDEX IN FAHRENHEIT
WCI    - WIND CHILL INDEX IN FAHRENHEIT
TC     - TEMPERATURE IN CELSIUS WHICH IS ALSO KNOWN AS
         TEMPERATURE IN CENTIGRADE
AFB    - AIR FORCE BASE
         LUKE AFB IS LUKE AIR FORCE BASE
         DAVIS-MONTHAN IS DAVIS-MONTHAN AIR FORCE BASE
NAS    - NAVAL AIR STATION
         EL CENTRO NAS IS EL CENTRO NAVAL AIR STATION
N/A    - NOT AVAILABLE





USA.gov is the U.S. government's official web portal to all federal, state and local government web resources and services.